Temperature
28 29 29 29 29 29 29 29 29 30 30 29 29 28 27 25 24 23 23 22 21 21 20 19 19 19 19 19 19 18 18 18 18 18 18 18 18 17 17 17 17 17 17 17
27 28 28 28 29 29 29 29 29 29 29 30 28 27 26 25 24 23 22 22 21 20 20 19 19 19 19 19 18 18 18 18 17 18 17 17 17 17 17 17 17 17 17 16
27 28 27 27 28 29 29 29 29 29 29 28 28 27 26 25 24 23 22 22 21 20 20 19 19 19 19 18 18 18 18 18 17 17 17 17 17 17 17 17 16 16 16 16
26 26 25 28 29 29 28 28 28 28 28 27 27 26 25 24 24 23 22 21 21 20 20 19 19 19 18 18 18 17 17 17 17 17 17 17 17 17 17 16 16 16 16 16
26 26 26 27 27 27 27 27 27 27 27 26 25 25 25 24 23 22 22 21 20 20 20 19 18 18 18 18 17 17 17 17 17 17 16 16 16 16 16 16 16 16 16 16
25 25 25 26 26 26 26 26 25 25 25 25 25 27 26 23 22 22 21 20 20 19 19 19 18 18 18 17 17 17 17 16 16 16 16 16 16 16 16 16 15 15 15 15
24 25 26 25 25 25 25 25 24 24 24 24 24 24 23 22 21 20 20 20 19 19 19 18 18 17 17 17 17 16 16 16 16 16 16 16 16 15 15 15 15 15 15 15
24 24 25 24 24 24 24 23 22 22 22 22 22 22 21 21 20 19 19 19 19 18 18 18 17 17 17 17 16 16 16 16 16 15 15 15 15 15 15 15 15 14 14 14
24 24 22 22 23 22 22 21 21 21 21 21 21 21 20 20 19 19 19 18 18 18 18 17 17 17 17 16 16 16 16 15 15 15 15 15 15 15 14 14 14 14 14 14
22 23 22 21 21 21 20 20 20 20 20 20 20 20 19 19 19 18 18 18 17 17 17 17 17 16 16 16 16 16 15 15 15 15 15 15 14 14 14 14 14 14 14 14
21 22 21 21 20 20 19 19 19 19 19 19 19 19 19 18 18 17 17 17 17 17 17 16 16 16 16 16 16 15 15 15 15 15 15 14 14 14 14 14 14 14 14 14
21 20 20 20 19 19 18 19 19 18 18 18 18 18 18 18 17 17 16 16 16 16 16 16 16 16 16 15 15 15 15 15 15 14 14 14 14 14 14 13 13 13 13 13
19 18 18 18 18 18 18 18 18 18 18 17 17 17 17 17 17 16 16 16 16 15 15 15 15 15 15 15 15 15 15 14 14 14 14 14 14 14 14 13 13 13 13 13
17 17 17 17 17 17 17 17 17 17 17 17 16 16 16 16 16 16 16 15 15 15 15 15 15 15 15 15 15 14 14 14 14 14 14 14 13 13 13 13 13 13 12 12
16 16 16 17 16 17 17 16 17 17 16 16 16 16 16 16 15 15 15 15 15 15 15 14 14 14 14 14 14 14 14 13 13 13 13 13 13 13 13 13 13 13 12 12
16 16 16 16 16 16 16 16 16 16 16 16 15 15 15 15 15 15 14 14 14 14 14 14 14 14 14 14 13 13 13 13 13 13 13 13 13 13 13 13 12 12 12 12
16 16 16 16 16 16 16 15 15 15 15 15 15 15 15 15 14 14 14 14 14 14 14 14 14 14 13 13 13 13 13 13 12 13 12 12 12 12 12 12 12 12 12 11
15 15 15 15 15 15 15 15 15 15 15 14 14 14 14 14 14 14 14 14 13 13 13 13 13 13 13 13 13 13 12 12 12 12 12 12 12 12 12 12 11 11 11 11
14 14 14 14 15 14 14 14 14 14 14 14 14 14 14 13 14 13 13 13 13 13 13 13 13 13 13 12 12 12 12 12 12 12 12 12 12 12 11 11 11 11 11 11
14 14 14 14 14 14 14 14 14 14 14 13 13 13 13 13 13 13 13 13 13 13 13 13 13 12 12 12 12 12 12 12 12 12 12 12 11 11 11 11 11 11 11 10
13 13 13 13 13 13 13 13 13 13 13 13 13 12 12 12 12 12 12 12 12 12 12 12 12 12 12 12 12 12 12 12 12 11 11 11 11 11 11 11 10 10 10 10
13 13 13 13 13 13 13 13 13 12 12 12 12 12 12 12 12 12 12 12 12 12 12 12 12 12 12 11 11 11 11 11 11 11 11 11 10 10 10 10 10 10 10 10
12 12 12 12 12 12 12 12 12 12 12 12 12 12 12 12 12 12 12 11 11 11 11 11 11 11 11 11 11 11 11 11 11 10 10 10 10 10 10 10 10 10 9 9
12 12 12 12 12 12 12 12 12 12 12 12 12 12 12 11 11 11 11 11 11 11 11 11 11 11 11 10 10 10 10 10 10 10 10 10 9 9 9 9 9 9 9 9
11 11 12 12 12 12 11 12 12 12 12 12 12 12 12 11 11 11 11 11 11 11 10 10 10 10 10 10 10 10 10 10 10 9 9 9 9 9 9 9 9 9 9 9
11 11 11 11 11 11 12 12 12 12 12 12 11 11 11 11 11 10 10 10 10 10 10 10 10 9 9 9 9 9 9 9 9 9 9 9 9 9 9 9 9 9 8 8
11 11 11 11 11 11 12 12 12 11 11 11 11 11 11 10 10 10 10 10 10 10 9 9 9 9 9 9 9 9 9 9 9 9 9 9 8 8 8 8 8 8 8 8
Wind_Speed
12 10 11 12 12 12 13 14 14 12 10 8 6 5 5 5 6 6 7 7 6 5 5 4 3 3 2 2 2 2 3 4 4 4 5 5 6 6 6 6 6 6 5 6
12 12 12 14 14 14 14 14 15 14 12 6 3 3 5 6 7 7 7 7 7 6 5 4 4 3 3 2 2 2 3 3 2 3 4 4 4 5 5 5 5 5 6 6
12 11 13 16 15 15 13 12 13 14 9 5 5 5 6 7 8 8 8 7 7 6 5 4 4 4 3 3 3 3 3 2 2 3 3 4 4 4 5 5 5 6 7 7
10 9 15 9 5 9 10 10 10 10 8 7 6 5 5 6 7 7 7 7 6 6 5 4 3 3 3 3 3 3 3 3 3 3 3 3 4 4 5 5 5 5 6 6
10 14 13 8 5 7 9 10 6 8 8 7 5 5 5 5 5 6 6 6 6 6 5 5 4 3 3 3 3 3 3 3 3 3 3 3 3 4 4 4 5 5 5 5
11 12 13 6 3 3 7 9 2 4 6 5 5 8 4 2 4 5 5 5 5 5 5 4 4 4 3 3 3 3 3 3 3 3 3 3 3 4 4 4 4 5 4 5
14 14 10 2 2 5 9 3 2 3 3 4 5 5 3 1 3 4 4 4 5 5 5 4 4 4 4 3 3 2 2 2 3 3 3 3 3 3 3 3 3 4 4 4
12 14 10 2 3 4 2 2 3 3 3 3 4 3 2 1 3 4 4 5 5 4 4 4 4 4 4 3 2 2 2 2 2 3 3 3 2 2 3 3 4 4 4 5
7 5 2 3 2 1 1 2 3 3 3 3 3 2 1 1 2 3 4 4 4 4 4 4 4 5 4 3 2 2 2 2 2 2 2 2 3 3 3 3 3 4 4 4
5 5 4 3 2 1 2 3 3 3 3 3 3 2 2 2 2 3 3 4 4 4 4 3 3 4 3 3 3 3 3 3 2 2 3 2 3 3 3 3 3 4 3 3
7 5 3 4 3 2 3 3 3 3 3 3 3 2 2 2 2 2 2 3 3 4 4 3 3 3 3 3 4 3 3 3 3 3 2 2 2 2 3 1 2 3 3 3
6 3 4 3 2 3 3 4 3 3 3 3 2 1 1 2 2 2 2 3 3 3 3 3 3 3 2 3 3 4 3 3 3 2 2 3 2 2 2 0 2 1 2 3
4 4 5 4 4 3 4 4 3 3 2 2 2 1 0 1 2 2 3 3 3 3 3 3 2 2 1 2 3 3 3 3 3 3 3 3 3 3 3 2 3 3 2 1
5 4 4 4 4 4 3 2 2 1 1 2 1 1 1 1 2 2 2 3 3 3 2 2 2 2 2 2 2 3 3 2 3 3 3 3 3 3 3 3 3 2 2 3
6 6 6 5 4 2 1 1 0 1 2 2 2 2 2 1 1 1 2 2 3 3 3 2 2 1 1 2 3 3 3 2 2 3 3 3 3 3 3 4 4 3 2 2
5 5 5 5 4 3 2 1 1 0 1 1 2 1 1 1 1 1 2 3 3 3 2 2 1 1 1 2 2 2 2 0 2 3 3 3 3 3 3 3 3 3 3 3
5 5 4 4 4 4 3 2 2 1 1 1 1 1 1 1 1 1 1 2 2 2 2 2 1 1 1 2 2 2 1 2 3 3 3 3 3 3 3 3 3 3 3 1
6 5 4 5 5 4 3 3 3 2 1 0 0 0 0 0 1 1 1 1 1 1 1 1 1 1 1 2 2 2 2 2 2 2 2 2 3 3 3 3 3 4 3 2
4 4 4 4 4 3 3 3 2 2 1 1 1 0 0 1 1 1 1 1 1 1 1 1 1 1 1 1 2 2 2 2 2 2 2 3 3 3 3 3 3 3 3 2
2 3 3 2 2 2 2 2 2 2 2 2 2 1 0 0 1 1 2 2 1 1 1 0 1 1 2 1 3 2 3 3 2 2 2 2 2 3 3 3 3 3 3 3
2 2 2 2 1 1 1 1 2 2 2 2 2 1 1 1 1 1 2 1 1 1 0 1 2 1 1 1 4 3 3 2 2 2 2 3 3 3 3 3 3 3 3 3
3 2 2 2 1 1 1 1 1 1 2 2 2 2 2 1 1 1 0 0 1 1 1 1 1 2 2 3 3 2 2 2 2 2 3 3 3 3 3 3 3 3 3 3
3 3 3 3 2 2 2 2 2 2 2 2 2 2 2 1 1 1 1 1 0 1 1 1 2 3 2 2 1 1 1 2 2 3 3 3 3 3 3 4 3 3 3 2
2 2 3 2 2 2 2 1 1 1 1 1 1 1 1 1 1 1 0 2 1 0 1 2 3 0 3 1 1 1 1 1 2 2 2 2 2 3 3 3 3 2 2 3
2 3 2 2 2 1 1 2 2 2 1 1 0 1 0 0 1 0 0 1 2 1 0 1 2 3 2 1 1 2 2 1 2 2 2 2 2 2 2 2 3 3 3 3
2 1 1 1 2 2 1 1 1 1 1 1 0 0 1 1 1 1 1 1 1 0 0 1 0 1 2 2 2 2 2 2 2 2 3 3 3 3 3 3 4 4 4 4
1 1 1 1 1 1 1 1 1 1 1 0 0 0 1 1 1 1 1 1 0 1 1 1 1 1 2 2 2 2 2 2 2 2 3 3 3 4 3 4 3 3 3 4
Wind_Direction
252 255 247 241 237 233 240 252 261 264 258 257 260 228 202 188 179 175 171 169 167 165 157 156 151 150 156 166 178 192 197 209 213 222 226 227 225 223 222 222 222 219 220 226
243 242 243 246 243 240 241 248 253 259 261 266 262 219 196 187 185 182 179 176 174 173 169 170 166 165 161 166 170 185 199 213 216 222 224 225 223 219 220 222 224 221 222 224
243 234 240 243 240 240 243 245 248 252 254 254 244 231 212 196 192 187 184 183 184 183 182 180 178 175 179 178 177 184 194 204 214 223 230 228 220 213 216 220 222 221 223 223
246 233 241 244 238 240 244 250 255 259 257 255 256 245 224 211 197 189 188 190 191 192 188 187 181 176 180 179 182 189 195 204 219 226 228 232 232 223 220 218 223 226 225 224
241 239 242 232 218 230 240 246 261 258 252 254 255 230 212 204 205 200 195 196 194 193 188 181 182 179 183 186 185 196 202 214 222 222 224 232 238 234 232 228 228 232 231 227
236 247 247 236 192 238 248 237 258 266 257 255 241 238 224 189 201 199 191 186 184 183 180 178 179 179 185 190 192 201 209 220 227 230 229 232 238 240 240 238 240 244 239 235
237 244 247 248 224 207 231 242 339 295 273 256 243 278 317 238 195 187 183 178 177 177 180 176 174 179 191 195 208 210 207 216 219 222 229 233 241 245 250 248 248 252 251 247
232 241 239 144 192 223 274 357 332 316 298 290 292 285 306 188 176 170 172 176 175 176 181 177 179 180 187 198 202 197 200 210 218 221 229 214 220 233 237 243 240 242 245 254
235 235 132 150 173 176 319 312 319 321 319 308 295 284 253 159 161 165 167 173 179 177 172 176 183 188 192 191 189 194 209 217 223 231 234 232 226 227 231 232 246 253 253 259
240 218 201 195 202 273 316 316 317 317 309 298 286 275 216 178 166 166 168 170 175 175 175 180 189 197 189 183 189 193 208 215 212 218 223 219 239 236 238 246 252 259 259 264
237 234 246 220 232 295 316 317 318 319 318 308 293 274 222 178 160 159 158 161 168 173 176 181 186 197 188 184 190 202 218 225 220 221 218 224 231 259 253 257 279 273 273 269
247 248 262 258 287 303 298 300 303 310 326 334 331 306 225 171 150 154 158 161 161 164 174 179 180 190 192 193 198 206 215 230 232 229 231 242 236 222 50 28 116 110 336 307
270 290 286 280 286 290 298 303 300 300 318 338 351 341 267 147 140 140 151 156 161 165 173 172 170 177 185 200 208 218 230 237 243 243 236 239 241 244 238 203 169 166 163 180
260 262 263 265 278 286 291 293 296 340 26 24 23 39 63 112 120 126 147 156 156 158 163 163 167 180 180 189 207 230 241 232 243 245 250 247 248 252 257 254 238 233 193 174
244 242 254 265 264 253 225 186 120 69 51 37 37 49 58 84 111 126 145 147 145 148 148 148 158 177 198 201 209 226 241 248 257 261 258 257 253 254 257 260 263 265 265 213
250 244 249 240 230 227 216 212 234 305 22 30 23 28 48 95 122 125 149 160 157 151 150 153 157 168 178 194 221 229 232 287 274 262 259 253 254 258 261 261 265 267 266 277
242 243 247 246 235 235 233 232 246 259 294 352 6 22 44 79 106 123 165 172 157 153 167 166 157 156 179 201 222 230 232 208 224 247 255 262 262 262 262 265 266 266 270 267
240 242 241 244 241 239 234 232 235 237 249 327 40 18 173 180 171 157 152 133 123 128 136 131 116 138 208 214 226 224 218 231 237 248 247 252 263 263 258 258 260 262 262 213
239 236 238 239 239 235 234 241 248 249 230 205 198 199 292 259 189 157 157 151 148 139 96 73 106 211 216 226 248 232 233 231 231 234 239 227 239 252 257 256 258 262 266 262
231 237 236 223 231 234 233 242 246 241 215 195 175 156 115 323 183 176 189 201 194 55 75 90 247 245 235 239 270 246 243 237 239 237 238 248 251 256 255 253 252 254 258 259
246 229 211 193 211 245 238 232 225 218 200 180 162 162 161 173 182 186 190 173 86 59 15 234 241 249 254 293 258 252 246 244 242 244 248 249 255 258 258 257 255 255 258 260
240 229 221 200 201 223 222 216 211 210 196 170 159 167 163 168 159 162 146 108 107 71 287 274 282 44 354 293 259 263 261 259 259 255 255 257 256 253 255 258 257 256 253 248
241 232 225 214 214 211 193 188 193 197 200 194 198 193 176 192 205 204 190 120 100 6 310 9 56 59 318 265 273 282 277 272 269 267 266 266 268 264 256 256 262 269 269 261
235 230 229 222 207 200 202 197 203 218 226 230 210 176 182 205 215 221 167 118 104 86 3 79 100 147 267 252 268 266 266 276 281 283 283 280 270 269 267 262 262 265 266 269
247 234 211 197 203 214 200 190 193 206 232 233 196 136 182 196 213 197 140 146 145 181 334 118 167 229 241 277 292 293 283 295 299 293 281 277 273 269 271 273 269 264 261 263
250 250 235 226 238 245 239 230 233 238 226 221 241 67 70 89 126 151 164 165 110 115 312 314 275 257 286 290 291 294 290 276 264 262 277 281 280 279 281 281 276 272 268 269
222 219 200 249 255 255 265 260 253 253 244 212 224 30 63 84 104 113 126 152 151 16 17 351 325 301 295 296 298 300 298 293 282 277 277 281 285 282 283 285 286 283 279 277
Height
1473 1471 1471 1473 1475 1476 1478 1477 1479 1475 1474 1473 1474 1478 1483 1487 1490 1492 1494 1496 1498 1500 1502 1503 1504 1504 1505 1506 1506 1507 1507 1508 1508 1509 1510 1510 1511 1511 1512 1513 1513 1514 1514 1515
1477 1472 1471 1473 1471 1471 1473 1473 1474 1474 1473 1471 1475 1479 1482 1485 1488 1490 1492 1494 1496 1498 1499 1500 1501 1502 1502 1503 1504 1504 1505 1506 1506 1506 1507 1507 1507 1508 1508 1509 1510 1510 1510 1511
1476 1471 1472 1476 1468 1468 1468 1468 1470 1471 1470 1471 1474 1477 1480 1483 1485 1487 1489 1491 1493 1495 1497 1498 1499 1499 1500 1501 1502 1502 1503 1503 1503 1503 1504 1504 1504 1504 1505 1505 1506 1506 1507 1507
1475 1478 1487 1467 1460 1462 1465 1466 1466 1467 1469 1472 1474 1477 1479 1481 1483 1485 1487 1489 1491 1493 1494 1496 1496 1497 1498 1499 1500 1500 1500 1500 1501 1501 1501 1501 1501 1501 1501 1502 1502 1502 1503 1503
1474 1475 1470 1463 1462 1463 1466 1467 1467 1468 1469 1472 1474 1475 1476 1479 1481 1483 1484 1486 1488 1490 1492 1493 1494 1495 1495 1496 1497 1498 1498 1498 1498 1498 1498 1498 1497 1498 1498 1498 1499 1499 1499 1499
1475 1478 1475 1464 1462 1465 1467 1469 1469 1469 1470 1471 1472 1470 1472 1476 1478 1480 1482 1484 1486 1487 1489 1490 1491 1492 1493 1494 1494 1495 1495 1495 1495 1495 1495 1495 1495 1495 1495 1495 1495 1496 1496 1495
1472 1472 1462 1462 1463 1465 1472 1470 1470 1470 1471 1471 1472 1472 1474 1475 1477 1478 1480 1482 1483 1485 1486 1487 1488 1489 1490 1491 1492 1492 1492 1492 1492 1493 1493 1492 1492 1492 1492 1492 1493 1493 1493 1493
1469 1472 1467 1464 1464 1466 1468 1470 1471 1471 1471 1472 1472 1473 1473 1474 1475 1476 1477 1479 1481 1482 1483 1485 1486 1487 1487 1488 1489 1489 1489 1490 1490 1490 1490 1490 1490 1489 1489 1490 1490 1490 1490 1490
1461 1464 1466 1466 1467 1469 1470 1471 1471 1471 1471 1472 1471 1471 1472 1473 1473 1474 1475 1477 1478 1479 1480 1482 1483 1484 1485 1486 1486 1486 1487 1487 1487 1487 1487 1488 1487 1487 1487 1487 1487 1488 1488 1487
1463 1462 1465 1467 1468 1469 1470 1471 1471 1471 1471 1470 1470 1470 1470 1471 1472 1473 1473 1475 1476 1477 1478 1479 1481 1482 1483 1483 1484 1484 1484 1484 1484 1484 1485 1484 1485 1485 1484 1484 1484 1485 1485 1484
1464 1463 1466 1466 1468 1469 1470 1470 1470 1470 1470 1469 1469 1469 1469 1469 1470 1471 1472 1473 1474 1474 1475 1477 1478 1479 1481 1481 1481 1481 1482 1482 1482 1482 1482 1482 1482 1482 1482 1481 1481 1481 1481 1481
1461 1464 1466 1466 1467 1468 1469 1468 1468 1468 1468 1468 1468 1467 1468 1468 1468 1469 1470 1471 1472 1473 1474 1475 1476 1477 1478 1479 1479 1479 1479 1479 1480 1480 1479 1479 1479 1479 1478 1478 1477 1477 1477 1477
1465 1465 1466 1466 1467 1467 1467 1467 1467 1467 1467 1466 1466 1467 1467 1467 1467 1468 1469 1470 1471 1471 1472 1473 1474 1475 1476 1477 1477 1477 1477 1477 1477 1477 1477 1477 1477 1476 1476 1476 1475 1474 1474 1474
1464 1465 1465 1465 1465 1465 1465 1465 1465 1466 1466 1466 1466 1466 1466 1466 1466 1467 1468 1469 1470 1471 1471 1472 1473 1473 1474 1474 1474 1474 1475 1475 1474 1474 1474 1474 1474 1474 1473 1473 1472 1472 1471 1471
1462 1463 1463 1463 1463 1463 1464 1464 1464 1464 1464 1465 1465 1464 1465 1465 1465 1466 1468 1468 1469 1469 1470 1471 1471 1472 1472 1472 1472 1472 1472 1472 1472 1471 1471 1471 1471 1470 1470 1470 1470 1469 1469 1468
1459 1460 1460 1461 1461 1462 1462 1462 1463 1463 1463 1463 1463 1464 1464 1464 1465 1466 1467 1467 1468 1468 1468 1468 1469 1469 1469 1469 1469 1469 1469 1469 1469 1469 1469 1468 1468 1468 1467 1467 1467 1466 1466 1466
1457 1457 1457 1458 1459 1460 1461 1461 1462 1462 1462 1462 1462 1462 1462 1463 1463 1464 1465 1466 1466 1466 1466 1466 1466 1467 1467 1467 1467 1467 1467 1467 1466 1466 1466 1466 1466 1465 1465 1464 1464 1464 1463 1462
1455 1455 1457 1458 1458 1459 1459 1460 1460 1461 1461 1461 1461 1461 1461 1461 1462 1463 1464 1465 1465 1465 1465 1465 1465 1465 1465 1465 1464 1465 1465 1464 1464 1464 1463 1463 1463 1463 1462 1462 1461 1461 1461 1460
1453 1454 1455 1455 1456 1456 1457 1458 1458 1458 1458 1459 1459 1459 1460 1460 1461 1462 1463 1463 1463 1463 1463 1463 1463 1462 1463 1462 1462 1462 1462 1462 1461 1461 1460 1460 1460 1460 1459 1459 1458 1458 1458 1458
1451 1452 1453 1453 1454 1454 1455 1456 1456 1456 1456 1457 1457 1458 1458 1459 1460 1460 1461 1461 1461 1461 1461 1461 1461 1461 1460 1460 1459 1460 1459 1459 1458 1458 1458 1457 1457 1456 1456 1456 1456 1455 1455 1455
1449 1450 1451 1451 1452 1453 1453 1454 1454 1455 1455 1455 1455 1456 1456 1458 1459 1459 1459 1459 1460 1459 1459 1459 1459 1458 1458 1457 1457 1457 1456 1456 1455 1455 1455 1454 1454 1454 1454 1453 1453 1453 1452 1452
1447 1448 1449 1449 1451 1451 1452 1452 1453 1453 1454 1454 1454 1455 1455 1456 1457 1457 1457 1458 1457 1457 1457 1457 1457 1456 1455 1455 1455 1454 1454 1453 1453 1453 1452 1452 1451 1451 1450 1450 1450 1450 1449 1449
1446 1446 1447 1448 1449 1450 1450 1451 1452 1452 1452 1453 1453 1453 1453 1454 1455 1455 1456 1456 1456 1455 1455 1454 1454 1453 1453 1453 1453 1452 1451 1451 1450 1450 1449 1449 1448 1448 1447 1447 1447 1446 1446 1445
1444 1445 1445 1446 1447 1448 1449 1449 1450 1451 1451 1452 1452 1452 1452 1453 1453 1454 1454 1454 1453 1453 1453 1452 1451 1451 1451 1451 1451 1450 1449 1448 1448 1447 1447 1446 1445 1445 1444 1444 1443 1443 1442 1442
1443 1443 1444 1445 1446 1447 1447 1448 1449 1450 1450 1451 1451 1451 1452 1452 1452 1452 1452 1452 1451 1452 1451 1451 1450 1450 1450 1450 1449 1448 1447 1447 1446 1445 1445 1444 1443 1442 1441 1440 1440 1439 1439 1438
1442 1442 1443 1443 1444 1445 1446 1447 1447 1448 1449 1450 1450 1450 1450 1451 1450 1450 1450 1451 1450 1450 1449 1449 1449 1449 1449 1448 1447 1446 1445 1445 1444 1443 1442 1441 1440 1439 1438 1436 1436 1435 1435 1434
1441 1441 1442 1443 1444 1444 1445 1446 1447 1447 1448 1448 1448 1449 1449 1449 1449 1449 1449 1449 1448 1448 1448 1448 1448 1447 1447 1446 1445 1444 1443 1443 1442 1441 1440 1439 1437 1436 1434 1433 1432 1432 1431 1430